IK1GVQ Weather Reports


time (UTC)temp
C
wind
direction
speed
KPH
gust
KPH
rain 1hr
cm
rain 24hr
cm
rain mn
cm
humidity
%
barometer
mb
20260506234003 12 0 0.0 0.0 0.00 1.63 0.00 80 1010.9
20260506233504 12 0 0.0 0.0 0.00 1.63 0.00 80 1010.9
20260506233217 12 0 0.0 0.0 0.00 1.63 0.00 80 1010.8
20260506232504 12 0 0.0 0.0 0.00 1.63 0.00 81 1010.8
20260506232004 12 0 0.0 0.0 0.00 1.63 0.00 81 1010.8
20260506231504 12 0 0.0 0.0 0.00 1.63 0.00 81 1010.7
20260506231003 12 0 0.0 0.0 0.00 1.63 0.00 81 1010.7
20260506230503 12 0 0.0 0.0 0.00 1.63 0.00 81 1010.6
20260506230003 12 0 0.0 0.0 0.00 1.63 0.00 81 1010.7
20260506225503 13 0 0.0 0.0 0.00 1.63 0.00 82 1010.7
20260506225003 13 0 0.0 0.0 0.00 1.63 0.00 81 1010.7
20260506224503 13 309 0.0 3.2 0.00 1.63 0.00 82 1010.7
20260506224003 13 285 0.0 4.8 0.00 1.63 0.00 82 1010.7
20260506223504 13 280 0.0 4.8 0.00 1.63 0.00 81 1010.6
20260506223003 13 50 0.0 3.2 0.00 1.63 0.00 81 1010.5
20260506222503 13 68 0.0 8.0 0.00 1.63 0.00 81 1010.4
20260506222003 13 71 0.0 8.0 0.00 1.63 0.00 81 1010.3
20260506221504 13 71 0.0 1.6 0.00 1.63 0.00 81 1010.4
20260506221003 13 0 0.0 0.0 0.00 1.63 0.00 81 1010.5
20260506220503 13 0 0.0 0.0 0.00 1.63 0.00 81 1010.6
20260506220005 13 0 0.0 0.0 0.00 1.63 0.00 81 1010.8
20260506215503 14 0 0.0 0.0 0.00 1.63 1.63 80 1010.7
20260506215215 14 0 0.0 0.0 0.00 1.63 1.63 80 1010.7
20260506214503 14 0 0.0 0.0 0.00 1.63 1.63 80 1010.6
20260506214004 14 341 0.0 1.6 0.00 1.63 1.63 80 1010.6
20260506213714 14 341 0.0 1.6 0.00 1.63 1.63 80 1010.6
20260506213004 13 0 0.0 0.0 0.00 1.63 1.63 80 1010.6
20260506212503 13 0 0.0 0.0 0.00 1.63 1.63 80 1010.5
20260506212003 13 0 0.0 0.0 0.00 1.63 1.63 80 1010.5
20260506211503 13 0 0.0 0.0 0.00 1.63 1.63 80 1010.4
20260506211003 14 0 0.0 0.0 0.00 1.63 1.63 79 1010.4
20260506210503 14 73 0.0 1.6 0.00 1.63 1.63 79 1010.4
20260506210004 14 70 0.0 1.6 0.00 1.63 1.63 79 1010.3
20260506205503 14 64 0.0 1.6 0.00 1.63 1.63 79 1010.3
20260506205003 14 0 0.0 0.0 0.00 1.63 1.63 79 1010.2
20260506204503 14 0 0.0 0.0 0.00 1.63 1.63 79 1010.1
20260506204003 14 0 0.0 0.0 0.00 1.63 1.63 79 1010.1
20260506203504 14 56 0.0 1.6 0.00 1.63 1.63 79 1010.0
20260506203003 14 28 0.0 3.2 0.00 1.63 1.63 78 1010.0
20260506202503 14 19 0.0 3.2 0.00 1.63 1.63 78 1010.0
20260506202003 14 0 0.0 0.0 0.00 1.63 1.63 78 1009.9
20260506201503 14 29 0.0 1.6 0.00 1.63 1.63 78 1009.8
20260506201215 14 29 0.0 1.6 0.00 1.63 1.63 78 1009.8
20260506200713 14 16 0.0 1.6 0.00 1.63 1.63 78 1009.8
20260506200216 14 355 0.0 1.6 0.00 1.63 1.63 78 1009.7
20260506195504 14 24 0.0 1.6 0.00 1.63 1.63 77 1009.6
20260506195003 14 35 0.0 1.6 0.00 1.63 1.63 77 1009.4
20260506194715 14 35 0.0 1.6 0.00 1.63 1.63 77 1009.3
20260506194003 14 9 0.0 3.2 0.00 1.63 1.63 77 1009.2
20260506193504 14 15 0.0 3.2 0.00 1.63 1.63 77 1009.2
20260506193003 15 55 0.0 1.6 0.00 1.63 1.63 77 1009.1
20260506192503 15 5 0.0 1.6 0.00 1.63 1.63 77 1009.0
20260506192004 15 348 0.0 3.2 0.00 1.63 1.63 77 1008.9
20260506191505 15 342 0.0 4.8 0.00 1.63 1.63 77 1008.8
20260506191003 15 339 0.0 4.8 0.00 1.63 1.63 77 1008.7
20260506190713 15 8 0.0 4.8 0.00 1.63 1.63 77 1008.6
20260506190004 15 9 0.0 4.8 0.00 1.63 1.63 78 1008.5
20260506185504 15 352 0.0 4.8 0.00 1.63 1.63 78 1008.4
20260506185003 15 67 0.0 1.6 0.00 1.63 1.63 78 1008.4
20260506184715 15 50 0.0 3.2 0.00 1.63 1.63 78 1008.3
20260506184004 15 48 0.0 3.2 0.00 1.63 1.63 78 1008.2
20260506183716 15 60 0.0 1.6 0.00 1.63 1.63 78 1008.2
20260506183004 15 19 0.0 3.2 0.00 1.63 1.63 79 1008.1
20260506182503 15 19 0.0 3.2 0.00 1.63 1.63 79 1007.9
20260506182004 15 0 0.0 0.0 0.00 1.63 1.63 79 1007.8
20260506181713 15 0 0.0 0.0 0.00 1.63 1.63 79 1007.8
20260506181003 16 0 0.0 0.0 0.00 1.63 1.63 78 1007.5
20260506180503 16 67 0.0 4.8 0.00 1.63 1.63 78 1007.4
20260506180004 16 67 0.0 4.8 0.00 1.63 1.63 78 1007.3
20260506175504 16 75 0.0 8.0 0.00 1.63 1.63 77 1007.2
20260506175004 16 68 0.0 8.0 0.00 1.63 1.63 77 1007.2
20260506174503 16 48 0.0 4.8 0.00 1.63 1.63 77 1007.1
20260506174004 16 74 0.0 8.0 0.00 1.63 1.63 77 1007.1
20260506173717 16 73 0.0 8.0 0.00 1.63 1.63 77 1007.0
20260506173004 16 79 1.6 11.3 0.00 1.63 1.63 76 1006.8
20260506172504 16 88 3.2 22.5 0.00 1.63 1.63 75 1006.8
20260506172003 17 81 3.2 22.5 0.00 1.63 1.63 74 1006.8
20260506171503 17 79 4.8 14.5 0.00 1.63 1.63 74 1006.8
20260506171003 17 85 3.2 12.9 0.00 1.63 1.63 73 1006.7
20260506170504 17 80 4.8 20.9 0.00 1.63 1.63 73 1006.7
20260506170003 17 77 6.4 20.9 0.00 1.63 1.63 72 1006.6
20260506165504 18 79 8.0 19.3 0.00 1.63 1.63 71 1006.6
20260506165004 18 79 4.8 17.7 0.00 1.63 1.63 69 1006.4
20260506164503 18 60 1.6 11.3 0.00 1.63 1.63 62 1006.2
20260506164004 18 63 1.6 11.3 0.00 1.63 1.63 61 1006.0
20260506163503 18 71 1.6 11.3 0.00 1.63 1.63 60 1006.0
20260506163216 18 73 1.6 16.1 0.00 1.63 1.63 63 1006.0
20260506162713 18 77 3.2 16.1 0.00 1.63 1.63 61 1006.0
20260506162003 19 76 1.6 9.7 0.00 1.63 1.63 60 1005.9
20260506161503 19 39 0.0 12.9 0.00 1.63 1.63 61 1005.9
20260506161003 19 48 1.6 12.9 0.00 1.63 1.63 59 1005.8
20260506160504 20 13 1.6 9.7 0.00 1.63 1.63 59 1005.8
20260506160213 20 9 1.6 9.7 0.00 1.63 1.63 59 1005.8
20260506155716 20 348 1.6 9.7 0.00 1.63 1.63 59 1005.7
20260506155003 20 334 3.2 9.7 0.00 1.63 1.63 61 1005.7
20260506154503 20 330 3.2 12.9 0.00 1.63 1.63 61 1005.7
20260506154215 19 328 4.8 12.9 0.00 1.63 1.63 61 1005.7
20260506153503 19 321 6.4 14.5 0.00 1.63 1.63 61 1005.7
20260506153216 19 321 6.4 14.5 0.00 1.63 1.63 62 1005.8
20260506152503 19 323 4.8 12.9 0.00 1.63 1.63 63 1006.0
20260506152003 20 324 3.2 12.9 0.00 1.63 1.63 64 1006.1
20260506151715 20 327 1.6 9.7 0.00 1.63 1.63 65 1006.1
20260506151003 19 332 3.2 9.7 0.00 1.63 1.63 64 1006.1
20260506150504 19 328 3.2 9.7 0.00 1.63 1.63 64 1006.3
20260506150004 19 323 4.8 9.7 0.00 1.63 1.63 67 1006.4
20260506145503 18 324 4.8 9.7 0.00 1.63 1.63 67 1006.4
20260506145003 18 329 3.2 9.7 0.00 1.63 1.63 69 1006.4
20260506144503 18 327 4.8 17.7 0.00 1.63 1.63 70 1006.4
20260506144003 18 319 6.4 24.1 0.00 1.63 1.63 67 1006.3
20260506143714 18 317 4.8 24.1 0.00 1.63 1.63 67 1006.4
20260506143004 19 325 0.0 6.4 0.00 1.63 1.63 64 1006.4
20260506142504 19 325 0.0 6.4 0.00 1.63 1.63 64 1006.4
20260506142003 19 322 0.0 6.4 0.00 1.63 1.63 64 1006.4
20260506141715 19 322 0.0 6.4 0.00 1.63 1.63 64 1006.4
20260506141003 19 115 0.0 3.2 0.00 1.63 1.63 67 1006.4
20260506140503 18 109 0.0 3.2 0.00 1.63 1.63 66 1006.5
20260506140004 19 88 0.0 4.8 0.00 1.63 1.63 66 1006.5
20260506135712 19 85 0.0 4.8 0.00 1.63 1.63 65 1006.5
20260506135003 19 81 0.0 6.4 0.00 1.63 1.63 64 1006.5
20260506134503 19 335 0.0 6.4 0.00 1.63 1.63 64 1006.4
20260506134003 19 322 0.0 8.0 0.00 1.63 1.63 64 1006.6
20260506133715 19 330 0.0 8.0 0.00 1.63 1.63 64 1006.6
20260506133003 20 34 0.0 4.8 0.00 1.63 1.63 65 1006.6
20260506132503 20 74 0.0 11.3 0.00 1.63 1.63 67 1006.6
20260506132003 19 77 0.0 11.3 0.00 1.63 1.63 66 1006.7
20260506131503 19 70 0.0 8.0 0.00 1.63 1.63 68 1006.7
20260506131003 19 77 1.6 16.1 0.00 1.63 1.63 68 1006.7
20260506130503 19 77 1.6 16.1 0.00 1.63 1.63 70 1006.7
20260506130004 19 72 0.0 11.3 0.00 1.63 1.63 69 1006.7
20260506125713 20 38 0.0 4.8 0.00 1.63 1.63 69 1006.8
20260506125004 19 27 0.0 9.7 0.00 1.63 1.63 71 1006.8
20260506124714 19 31 0.0 9.7 0.00 1.63 1.63 71 1006.8
20260506124003 19 324 3.2 11.3 0.00 1.63 1.63 73 1006.9
20260506123503 19 330 1.6 11.3 0.00 1.63 1.63 69 1006.9
20260506123003 19 94 0.0 8.0 0.00 1.63 1.63 70 1006.9
20260506122503 19 121 0.0 6.4 0.00 1.63 1.63 67 1006.8
20260506122004 18 227 0.0 3.2 0.00 1.63 1.63 69 1006.8
20260506121717 18 0 0.0 0.0 0.00 1.63 1.63 67 1006.8
20260506121003 18 268 0.0 6.4 0.00 1.63 1.63 70 1006.8
20260506120504 18 222 1.6 8.0 0.00 1.63 1.63 69 1006.9
20260506120004 18 188 1.6 8.0 0.00 1.63 1.63 72 1006.9
20260506115503 18 119 0.0 4.8 0.00 1.63 1.63 72 1006.9
20260506115003 17 109 0.0 9.7 0.00 1.63 1.63 72 1006.9
20260506114503 17 109 0.0 9.7 0.00 1.63 1.63 71 1006.9
20260506114003 18 0 0.0 0.0 0.00 1.63 1.63 74 1006.9
20260506113503 17 119 0.0 4.8 0.00 1.63 1.63 74 1006.9
20260506113003 17 114 0.0 4.8 0.00 1.63 1.63 74 1006.9
20260506112503 17 113 1.6 8.0 0.00 1.63 1.63 75 1006.9
20260506112003 17 113 0.0 8.0 0.00 1.63 1.63 76 1006.9
20260506111717 17 0 0.0 0.0 0.00 1.63 1.63 78 1006.9
20260506111003 16 129 0.0 6.4 0.00 1.63 1.63 77 1007.1
20260506110713 16 128 0.0 6.4 0.00 1.63 1.63 78 1007.1
20260506110004 16 167 0.0 8.0 0.00 1.63 1.63 79 1007.2
20260506105503 16 176 0.0 4.8 0.00 1.63 1.63 78 1007.2
20260506105003 16 191 1.6 6.4 0.00 1.63 1.63 78 1007.3
20260506104504 16 177 1.6 6.4 0.00 1.63 1.63 80 1007.3
20260506104003 16 145 0.0 6.4 0.00 1.63 1.63 80 1007.3
20260506103503 16 6 0.0 1.6 0.00 1.63 1.63 80 1007.3
20260506103004 16 137 1.6 6.4 0.00 1.63 1.63 80 1007.2
20260506102504 15 138 1.6 6.4 0.00 1.63 1.63 80 1007.1
20260506102004 15 144 0.0 4.8 0.00 1.63 1.63 80 1007.2
20260506101503 15 144 0.0 4.8 0.00 1.63 1.63 80 1007.2
20260506101003 15 146 0.0 4.8 0.00 1.63 1.63 79 1007.2
20260506100503 14 160 0.0 4.8 0.00 1.63 1.63 78 1007.3
20260506100003 14 285 0.0 4.8 0.00 1.63 1.63 71 1007.3
20260506095503 13 284 0.0 4.8 0.00 1.63 1.63 67 1007.3
20260506095003 13 285 0.0 4.8 0.00 1.63 1.63 62 1007.3
20260506094716 13 321 0.0 6.4 0.03 1.63 1.63 64 1007.3
20260506094003 12 322 1.6 6.4 0.03 1.63 1.63 57 1007.2
20260506093503 12 283 0.0 9.7 0.03 1.63 1.63 58 1007.3
20260506093215 12 269 1.6 9.7 0.05 1.63 1.63 53 1007.3
20260506092503 12 296 1.6 9.7 0.05 1.65 1.63 54 1007.3
20260506092003 11 304 1.6 9.7 0.05 1.65 1.63 52 1007.4
20260506091503 11 298 1.6 14.5 0.08 1.65 1.63 48 1007.4
20260506091003 11 303 1.6 14.5 0.13 1.65 1.63 47 1007.4
20260506090503 11 303 1.6 12.9 0.15 1.65 1.63 46 1007.5
20260506090003 11 293 1.6 8.0 0.15 1.65 1.63 46 1007.5
20260506085504 11 293 0.0 8.0 0.18 1.65 1.63 48 1007.5
20260506085004 11 303 0.0 6.4 0.20 1.65 1.63 46 1007.5
20260506084503 11 307 0.0 6.4 0.20 1.63 1.60 46 1007.5
20260506084003 11 320 0.0 8.0 0.20 1.63 1.60 46 1007.6
20260506083503 11 318 0.0 8.0 0.23 1.63 1.60 47 1007.6
20260506083003 11 313 0.0 6.4 0.23 1.60 1.57 47 1007.6
20260506082503 10 304 0.0 3.2 0.23 1.57 1.55 46 1007.6
20260506082216 10 305 0.0 3.2 0.25 1.57 1.55 46 1007.6
20260506081503 10 311 0.0 3.2 0.25 1.55 1.55 46 1007.7
20260506081003 10 314 0.0 1.6 0.23 1.52 1.50 46 1007.7
20260506080503 10 0 0.0 0.0 0.23 1.50 1.47 46 1007.7
20260506080213 10 0 0.0 0.0 0.23 1.47 1.45 46 1007.8
20260506073503 10 318 1.6 9.7 0.79 1.40 1.37 49 1007.8
20260506073003 10 319 3.2 12.9 0.79 1.40 1.37 51 1007.8
20260506072504 11 320 3.2 12.9 0.74 1.37 1.32 49 1007.7
20260506072003 11 317 1.6 12.9 0.71 1.32 1.27 46 1007.8
20260506071504 11 315 0.0 6.4 0.71 1.32 1.27 46 1007.7
20260506071004 11 310 1.6 6.4 0.71 1.30 1.27 46 1007.8
20260506070504 11 305 0.0 6.4 0.71 1.27 1.24 46 1007.8
20260506062505 11 302 0.0 1.6 0.23 0.64 0.58 47 1007.9
20260506062004 11 305 0.0 1.6 0.23 0.61 0.56 47 1007.9
20260506061504 11 0 0.0 0.0 0.23 0.61 0.56 47 1007.8
20260506061214 11 0 0.0 0.0 0.20 0.61 0.53 47 1007.8
20260506060716 11 0 0.0 0.0 0.20 0.61 0.53 47 1007.8
20260506051003 11 0 0.0 0.0 0.15 0.58 0.33 48 1008.2
20260506050717 11 0 0.0 0.0 0.18 0.61 0.33 48 1008.2
20260506045003 11 34 0.0 4.8 0.25 0.71 0.33 49 1008.4
20260506044504 11 37 0.0 4.8 0.25 0.71 0.33 49 1008.3
20260506044003 11 58 0.0 1.6 0.23 0.71 0.30 49 1008.3
20260506043504 11 45 0.0 1.6 0.23 0.71 0.28 50 1008.6
20260506043003 11 0 0.0 0.0 0.23 0.74 0.25 50 1008.7
20260506042503 11 0 0.0 0.0 0.20 0.74 0.23 50 1008.7
20260506042003 11 0 0.0 0.0 0.18 0.74 0.23 49 1008.6
20260506041503 11 44 0.0 3.2 0.15 0.74 0.20 49 1008.7
20260506041215 11 44 0.0 3.2 0.15 0.74 0.20 49 1008.7
20260506040503 11 0 0.0 0.0 0.13 0.71 0.15 49 1008.7
20260506040003 11 0 0.0 0.0 0.10 0.71 0.15 50 1008.8
20260506035503 11 0 0.0 0.0 0.08 0.69 0.13 49 1008.8
20260506035004 11 0 0.0 0.0 0.05 0.66 0.08 50 1008.7
20260506034504 11 0 0.0 0.0 0.03 0.64 0.05 50 1008.7
20260506034005 11 0 0.0 0.0 0.03 0.64 0.05 50 1008.8
20260506033716 11 0 0.0 0.0 0.00 0.61 0.05 50 1008.9
20260506033004 11 0 0.0 0.0 0.00 0.61 0.05 50 1009.0
20260506032716 11 0 0.0 0.0 0.00 0.61 0.05 50 1009.1
20260506032214 11 0 0.0 0.0 0.00 0.61 0.05 50 1009.2
20260506031712 11 0 0.0 0.0 0.00 0.61 0.05 50 1009.2
20260506031004 11 0 0.0 0.0 0.00 0.61 0.05 50 1009.3
20260506030503 11 0 0.0 0.0 0.00 0.61 0.05 51 1009.4
20260506030004 11 0 0.0 0.0 0.00 0.61 0.05 51 1009.4
20260506025504 11 0 0.0 0.0 0.00 0.61 0.05 51 1009.5
20260506025217 11 0 0.0 0.0 0.00 0.61 0.05 51 1009.6
20260506024503 11 0 0.0 0.0 0.00 0.61 0.05 51 1009.4
20260506024003 11 0 0.0 0.0 0.00 0.61 0.05 51 1009.5
20260506023503 11 0 0.0 0.0 0.00 0.61 0.05 51 1009.6
20260506023214 11 0 0.0 0.0 0.00 0.61 0.05 52 1009.6
20260506022503 11 0 0.0 0.0 0.00 0.61 0.05 52 1009.8
20260506022003 11 0 0.0 0.0 0.03 0.61 0.05 52 1009.9
20260506021503 11 0 0.0 0.0 0.03 0.61 0.05 53 1009.8
20260506021003 11 0 0.0 0.0 0.03 0.61 0.05 53 1009.9
20260506020714 11 0 0.0 0.0 0.03 0.61 0.05 53 1009.8
20260506020004 11 0 0.0 0.0 0.03 0.61 0.05 52 1009.7
20260506015503 11 0 0.0 0.0 0.03 0.61 0.05 52 1009.8
20260506015213 11 0 0.0 0.0 0.03 0.61 0.05 52 1009.7
20260506014503 11 0 0.0 0.0 0.05 0.61 0.05 53 1009.8
20260506014003 11 0 0.0 0.0 0.05 0.61 0.05 53 1009.9
20260506013503 11 0 0.0 0.0 0.05 0.61 0.05 53 1009.9
20260506013003 11 0 0.0 0.0 0.05 0.61 0.05 53 1010.0
20260506012503 11 0 0.0 0.0 0.05 0.61 0.05 53 1010.0
20260506012004 11 0 0.0 0.0 0.03 0.61 0.03 53 1010.1
20260506011504 11 0 0.0 0.0 0.03 0.61 0.03 53 1010.3
20260506011217 11 0 0.0 0.0 0.03 0.61 0.03 53 1010.4
20260506010503 11 0 0.0 0.0 0.03 0.61 0.03 52 1010.5
20260506010004 11 0 0.0 0.0 0.03 0.61 0.03 52 1010.6
20260506005503 11 0 0.0 0.0 0.03 0.61 0.03 53 1010.6
20260506005003 11 0 0.0 0.0 0.00 0.61 0.00 53 1010.8
20260506004504 11 0 0.0 0.0 0.00 0.61 0.00 53 1010.9
20260506004003 11 0 0.0 0.0 0.00 0.64 0.00 54 1010.9
20260506003503 12 0 0.0 0.0 0.00 0.64 0.00 54 1011.0
20260506003003 12 0 0.0 0.0 0.00 0.64 0.00 54 1011.0
20260506002504 12 0 0.0 0.0 0.00 0.64 0.00 53 1011.0
20260506002003 12 0 0.0 0.0 0.00 0.64 0.00 54 1011.1
20260506001503 12 0 0.0 0.0 0.00 0.64 0.00 53 1011.2
20260506001004 12 0 0.0 0.0 0.00 0.64 0.00 53 1011.1
20260506000503 12 0 0.0 0.0 0.00 0.64 0.00 54 1011.3
20260506000003 12 0 0.0 0.0 0.00 0.64 0.00 54 1011.4
20260505235717 12 0 0.0 0.0 0.00 0.64 0.00 54 1011.4
20260505235003 12 0 0.0 0.0 0.00 0.64 0.00 54 1011.5
20260505234503 12 0 0.0 0.0 0.00 0.64 0.00 54 1011.4